Location: Le Pont-de-Coulogne
(50.9242°N, 1.8700°E)
Time: 13:17:10
(UTC+00:00)

ARIANE 5 R/B - Pass Details

Date: 15 May 2026
Orbit: 614 x 648 km, 98.0° (Epoch: 14 September)

Event Time Altitude Azimuth Distance (km) Brightness Sun altitude
Exits shadow 22:52:41 41° 147° (SSE) 937 3.0 -18.9°
Maximum altitude 22:54:11 73° 73° (ENE) 675 2.7 -19.0°
Drops below altitude 10° 22:58:39 10° 349° (N) 2,054 6.5 -19.2°
Sets 23:00:52 0° 348° (NNW) 2,971 7.7 -19.2°
